RH
100 96 38 67 99 98 100 93 91 63 54 39 38 25 15 15 14 12 11 12 12 11 8 6 6 6 7 6 6 6 7 8 7 7 7 9 9 8 6 5 5 6 6 5 5
100 77 36 46 99 97 96 93 64 62 69 40 39 42 22 16 16 15 12 11 12 10 8 7 6 6 7 8 8 7 7 7 8 8 8 7 9 10 13 13 14 11 10 10 8
91 92 71 94 99 98 98 99 100 86 69 74 44 43 40 24 17 15 15 13 11 11 9 7 6 6 6 6 7 8 8 7 6 7 7 7 7 9 10 13 14 11 11 9 9
83 72 41 33 99 94 92 99 100 88 73 80 86 43 41 39 25 20 16 15 14 12 11 9 8 7 6 6 6 6 6 6 6 7 8 10 11 10 10 14 12 12 13 15 15
70 97 46 39 74 87 92 99 100 99 87 78 81 51 49 44 37 27 22 19 17 15 13 11 9 8 7 7 6 6 6 6 6 6 6 8 11 12 13 13 13 13 14 15 16
59 93 85 44 77 98 99 100 100 97 79 78 81 63 53 49 42 39 32 27 25 22 18 14 11 10 9 9 7 7 6 7 6 5 6 7 11 12 14 14 14 14 15 16 18
48 59 54 48 94 96 95 100 96 89 93 87 75 69 63 58 51 50 48 47 43 38 32 25 21 17 14 13 14 14 14 15 13 13 13 14 15 18 16 22 19 19 18 18 18
55 87 81 51 84 100 100 100 99 95 86 75 68 72 71 68 64 60 60 58 55 50 46 43 41 40 39 35 34 31 32 30 23 29 27 26 23 27 24 24 23 22 22 22 21
54 68 61 62 45 80 98 100 99 98 97 77 68 66 70 76 76 73 67 62 59 56 53 50 46 45 46 45 40 38 36 32 27 27 27 27 23 22 20 19 18 16 14 13 12
55 51 55 80 53 78 96 96 100 94 81 67 66 64 64 68 68 70 73 74 70 61 54 52 50 47 42 38 34 32 30 28 24 21 18 13 12 10 9 8 8 7 7 7 8
58 43 37 46 41 100 96 100 76 68 71 65 61 61 54 54 51 51 53 54 53 52 48 46 42 41 36 30 24 19 14 12 10 8 7 7 7 9 14 17 16 12 18 21 22
46 39 37 33 44 91 98 99 91 74 75 62 57 50 44 46 49 51 51 50 48 46 40 32 25 19 14 11 9 8 7 6 8 12 13 20 20 20 21 21 23 24 26 27 35
74 44 54 71 42 40 92 95 82 63 60 48 38 38 47 47 49 50 41 35 27 20 15 12 11 9 8 8 8 10 23 26 22 28 23 24 28 31 37 37 34 44 43 45 43
96 100 96 58 49 45 40 42 49 50 45 44 51 54 52 46 34 26 19 13 11 10 10 11 12 12 11 16 20 31 34 35 30 28 40 35 37 53 56 56 46 45 51 48 50
68 93 95 97 44 41 40 46 50 39 45 45 49 41 30 18 14 11 11 11 16 18 15 20 19 21 23 30 41 41 37 41 50 47 49 55 59 52 68 77 63 59 54 67 54
79 80 71 66 71 67 54 38 40 54 43 44 27 19 15 14 16 18 20 20 21 24 31 38 34 34 38 41 39 46 48 55 50 53 56 58 62 57 61 62 56 49 57 52 46
54 59 61 64 61 62 60 55 40 30 24 16 13 14 20 24 29 35 43 44 46 43 50 44 38 36 37 42 53 49 47 49 44 55 56 66 41 44 64 63 53 72 74 63 62
35 25 26 38 39 31 22 18 15 14 12 13 21 24 34 32 31 30 28 28 32 35 38 37 34 35 42 47 47 46 47 43 47 57 59 65 36 80 76 73 69 69 59 63 69
22 15 14 15 14 14 14 13 16 19 22 27 28 21 17 15 17 15 16 18 22 24 27 33 37 36 43 44 42 46 44 34 39 53 48 29 37 56 55 45 35 74 62 68 67
10 10 11 12 14 16 17 18 21 23 22 18 15 15 12 13 13 11 10 9 14 20 23 27 38 41 40 44 37 23 13 28 21 23 26 17 20 12 31 34 21 49 43 40 31
13 14 14 15 15 15 15 17 18 19 20 20 18 14 10 7 6 6 7 7 7 10 14 14 16 14 12 10 8 9 9 10 11 11 13 9 8 9 9 17 21 19 37 32 25
12 12 12 12 12 13 12 13 15 16 18 18 15 10 7 7 7 8 9 9 10 10 10 10 10 11 11 10 10 10 10 10 10 10 8 8 8 7 6 7 8 10 9 11 14
11 10 9 10 10 10 9 8 9 8 8 8 7 7 7 7 8 9 9 10 11 11 11 12 11 11 12 12 11 11 10 8 7 7 7 6 6 6 6 6 6 6 6 6 6
6 7 7 6 6 6 6 6 6 6 6 6 6 6 7 7 8 8 9 11 12 13 15 16 16 17 16 14 12 10 10 10 8 5 5 5 6 5 6 7 7 6 6 6 5
5 5 5 5 5 5 5 5 5 5 5 5 6 6 6 7 8 10 11 14 17 21 26 28 30 27 26 25 22 18 14 13 12 11 7 7 5 4 5 5 6 5 4 4 4
11 8 6 5 5 5 6 6 6 7 7 7 7 8 9 10 12 15 19 22 26 29 32 34 35 34 32 31 31 32 29 30 28 24 21 22 17 13 13 12 12 11 10 10 10
11 12 12 12 11 10 9 8 8 8 8 9 11 13 15 17 18 19 22 24 27 29 31 33 32 31 33 28 29 30 31 32 31 31 32 31 32 31 30 28 26 27 25 23 20
Wind_Speed
30 37 54 55 50 49 47 35 41 54 52 48 48 46 44 39 37 36 34 32 31 30 28 27 27 24 24 24 25 25 25 26 28 25 28 24 28 28 30 32 30 29 32 32 32
29 35 60 72 46 37 30 26 23 37 48 50 48 43 43 40 37 35 34 34 32 30 30 29 29 29 27 27 27 28 30 29 28 29 30 29 30 32 29 32 33 34 34 36 37
36 34 54 51 50 31 37 49 36 29 38 47 45 43 42 41 40 38 35 34 33 32 32 31 31 32 32 31 30 30 32 31 31 33 34 36 35 35 37 36 38 37 37 36 36
24 31 50 57 45 33 36 44 40 33 30 40 46 44 42 38 38 37 36 35 34 33 32 32 32 32 33 34 33 33 34 35 35 34 36 37 38 39 40 42 43 43 41 41 42
15 27 42 60 70 44 47 42 34 31 29 37 47 43 41 38 36 35 34 34 33 33 32 32 34 33 33 34 35 36 35 36 36 38 39 40 42 44 44 48 48 48 48 49 49
14 23 34 61 67 44 40 30 38 33 31 31 40 46 40 37 34 32 32 31 30 30 32 33 34 35 34 33 35 36 38 38 40 43 43 44 44 49 49 51 53 55 56 57 58
9 11 34 52 70 53 39 25 33 27 29 29 32 38 39 37 34 30 27 25 25 25 26 27 28 30 31 33 33 34 36 38 41 43 46 48 48 50 54 55 58 59 61 62 62
9 23 30 35 46 54 40 37 32 33 32 28 26 27 31 31 29 27 24 23 23 23 23 23 24 25 26 28 31 34 37 40 44 43 47 51 52 53 57 58 60 61 63 64 65
17 24 22 26 47 43 37 32 30 36 28 27 26 18 17 16 21 25 26 25 24 22 23 24 24 26 28 30 31 33 37 40 43 43 45 45 48 50 53 56 57 58 61 64 67
27 27 19 22 42 45 31 36 35 32 27 23 17 13 14 14 15 17 20 22 23 23 23 24 25 25 26 27 30 33 33 35 38 41 42 45 48 51 56 59 62 64 66 65 60
34 25 27 28 46 39 33 39 27 21 20 20 19 16 11 11 12 14 15 15 16 17 18 19 20 21 22 24 26 29 32 35 39 44 46 45 45 44 43 41 42 46 43 36 34
30 28 33 41 44 42 25 27 26 23 23 21 16 13 9 10 9 10 11 11 11 12 13 14 16 18 21 25 29 32 33 32 28 25 30 26 24 26 28 31 29 28 33 39 43
39 34 33 39 39 41 37 17 25 18 17 13 9 9 11 12 10 10 10 9 9 10 12 15 18 21 23 22 20 16 14 15 16 15 18 19 23 26 28 36 36 38 40 43 45
40 38 35 34 35 32 30 16 13 12 15 11 11 11 11 11 9 8 7 7 10 10 11 10 11 11 10 9 10 8 8 11 15 17 19 18 17 24 28 31 35 37 40 39 38
39 34 35 35 35 34 30 26 21 20 15 15 15 12 12 11 7 4 5 4 4 1 4 5 4 5 6 7 4 5 10 10 11 13 15 15 19 25 25 28 32 37 35 31 29
35 32 32 31 31 30 30 24 21 22 17 17 16 13 11 11 11 9 6 4 2 1 1 2 3 4 3 4 6 7 6 8 11 12 13 16 19 20 24 28 29 31 24 21 23
36 34 32 29 27 25 23 23 20 19 19 14 15 17 15 12 9 7 6 4 4 3 3 4 4 4 6 6 6 7 8 9 14 15 12 12 16 20 19 24 24 22 15 18 18
28 30 28 25 25 24 20 17 15 14 18 21 19 16 15 12 10 7 5 5 3 1 3 5 5 6 6 5 4 9 10 11 12 10 9 11 20 18 18 20 31 34 28 28 15
26 22 20 22 20 21 23 25 26 25 23 21 19 16 13 10 7 4 3 1 1 1 3 4 4 4 5 5 7 9 10 10 11 11 12 14 13 23 24 27 36 43 44 36 30
38 37 36 33 32 31 28 24 23 23 20 17 16 14 11 9 8 8 7 6 5 6 7 6 5 5 7 8 9 9 9 9 11 11 12 12 13 14 20 26 27 34 41 42 46
28 29 30 28 26 24 23 22 20 18 16 15 14 13 12 13 14 15 16 17 14 11 10 9 7 7 6 6 8 11 13 14 14 15 14 9 12 15 18 20 27 25 30 28 32
21 21 20 22 22 21 19 17 16 17 15 14 13 12 13 13 12 13 14 14 12 11 10 9 9 9 9 10 11 12 12 13 13 13 12 11 12 13 15 18 19 19 20 24 28
13 14 14 15 15 15 16 15 14 13 13 12 11 10 9 10 10 9 9 9 9 8 8 8 9 10 12 11 11 12 13 13 12 11 10 8 7 7 10 14 15 17 19 20 24
8 8 9 10 11 11 11 12 10 10 9 8 7 7 7 7 7 7 8 9 9 9 10 10 10 10 10 11 9 9 9 10 11 10 8 8 7 7 8 10 13 16 19 21 23
2 3 3 3 4 5 5 5 5 4 4 3 3 3 5 6 8 9 11 11 11 11 12 12 12 13 12 12 13 13 12 12 11 11 10 10 10 10 11 10 12 14 15 17 19
5 5 3 2 3 3 2 2 2 2 2 2 4 6 8 8 8 9 10 10 12 12 11 11 11 11 13 13 14 14 14 14 15 14 14 15 16 15 17 17 18 18 18 19 19
11 10 10 8 8 8 9 9 10 9 9 7 7 7 9 9 10 11 12 14 13 14 12 13 12 11 13 12 12 14 13 13 14 15 16 16 17 18 18 20 21 22 21 21 21
Wind_Direction
178 178 177 176 182 166 180 196 201 209 211 210 214 215 214 216 217 219 220 221 220 221 226 229 234 235 234 238 237 238 244 250 253 261 259 260 268 266 268 268 269 268 270 268 268
171 176 178 187 174 175 185 193 203 202 205 206 208 209 211 215 219 220 221 223 222 222 225 229 231 237 238 239 241 244 248 251 257 257 266 266 270 272 268 270 273 274 275 274 271
175 166 182 191 169 166 172 174 193 198 202 204 203 206 211 214 218 220 224 227 228 228 230 232 235 239 242 245 248 250 253 258 261 266 268 272 271 271 273 272 271 274 275 276 277
175 163 177 188 184 173 193 187 176 186 187 199 206 208 207 210 217 221 225 229 233 236 238 239 241 244 248 250 253 256 258 261 266 273 277 277 279 277 276 275 275 275 275 274 275
155 180 175 181 187 172 178 167 166 174 185 194 197 198 200 206 215 220 226 232 238 243 246 248 250 252 255 259 260 264 265 270 273 275 278 281 283 282 282 280 278 276 274 274 274
146 175 171 174 173 154 132 145 167 168 172 175 188 196 201 203 210 217 225 232 239 246 251 254 257 260 263 266 268 271 274 276 277 279 282 282 283 283 280 281 280 278 276 275 275
141 183 178 184 169 138 136 131 155 166 166 161 176 189 198 205 211 214 221 232 241 249 256 260 263 267 270 272 274 275 276 277 278 280 282 282 281 280 281 279 278 278 277 276 275
102 158 174 184 197 185 145 140 143 142 141 142 153 175 190 203 208 215 219 226 236 244 252 257 262 267 269 273 274 275 277 277 281 280 280 282 281 280 279 278 279 279 279 277 277
110 132 166 165 183 189 176 140 140 142 135 136 127 130 156 176 201 217 227 232 234 240 249 255 258 263 267 269 272 274 277 279 280 280 281 281 282 280 279 280 279 278 276 275 274
123 119 145 141 171 166 147 140 126 126 139 125 111 125 145 164 186 205 218 226 233 237 241 248 254 259 265 269 273 276 276 279 284 286 285 283 282 279 278 278 277 275 274 275 278
126 129 140 161 170 139 146 128 123 133 136 127 125 132 157 167 180 191 201 213 226 235 242 249 255 259 265 269 273 277 281 283 284 283 283 285 286 284 286 286 284 283 283 275 275
108 128 139 161 178 175 159 143 124 117 120 120 133 141 153 173 178 185 194 210 220 230 240 247 255 260 265 270 274 278 283 286 285 289 293 299 298 302 298 291 293 284 273 279 281
96 114 126 132 163 175 169 155 130 134 120 126 137 150 167 169 168 175 189 199 213 228 241 250 261 266 271 277 282 281 284 290 299 305 309 309 310 305 304 298 301 296 294 291 289
90 102 112 130 144 158 170 153 163 133 122 136 147 160 166 161 156 166 189 214 237 248 255 267 269 268 259 268 269 286 305 326 325 315 315 321 324 317 312 309 301 301 302 303 302
84 93 108 116 136 146 139 141 135 128 153 162 163 158 155 146 150 197 218 172 143 174 250 269 260 274 280 285 303 346 336 336 343 342 333 333 332 325 311 301 303 309 317 315 315
91 92 100 116 121 129 135 135 146 152 158 152 145 142 129 118 115 111 106 117 118 124 19 335 316 320 312 2 344 349 8 2 355 334 331 324 326 334 332 329 328 328 336 336 322
89 98 104 115 126 133 138 144 136 135 134 117 116 113 107 106 107 95 91 89 67 47 28 26 19 2 354 359 30 12 358 341 330 316 320 341 357 350 343 342 356 24 357 343 347
86 86 87 97 107 115 114 115 114 121 116 116 110 103 100 95 89 87 70 63 53 23 22 19 9 13 5 13 2 354 344 341 349 356 14 9 14 24 34 29 41 32 21 8 13
92 86 90 104 102 102 103 105 106 101 93 89 88 87 84 83 81 70 55 25 311 357 22 45 29 18 359 1 336 330 331 337 350 4 2 14 35 46 55 56 44 44 45 39 42
97 97 96 96 98 99 97 94 90 88 90 88 87 85 86 89 83 68 60 58 57 44 36 26 25 8 354 351 345 343 344 335 340 353 11 30 32 38 42 48 48 51 49 50 45
85 90 94 94 92 91 96 97 97 94 89 83 78 76 76 81 86 84 74 71 72 70 62 59 53 34 32 30 18 16 17 18 16 16 18 37 12 10 16 40 48 45 50 48 48
78 81 77 82 87 93 88 86 87 87 81 73 70 75 82 88 86 77 72 69 66 62 53 46 40 33 26 22 14 8 6 6 12 14 18 12 21 25 32 35 40 37 32 40 44
78 82 81 80 80 78 78 81 84 84 82 73 74 79 86 79 72 61 51 47 41 34 26 16 9 5 0 360 1 1 6 10 10 14 15 16 25 33 24 24 28 27 27 26 25
72 76 80 80 78 77 80 82 75 64 68 74 75 70 57 40 29 22 16 8 6 3 359 0 2 357 357 357 355 355 358 1 7 13 8 4 356 355 360 4 10 8 7 7 9
31 77 67 64 78 80 74 76 76 77 61 30 19 13 4 356 353 349 350 353 358 3 357 359 355 2 6 3 359 358 354 350 347 347 351 346 343 338 333 335 334 336 344 348 350
267 271 260 223 283 295 285 284 292 286 287 308 316 321 324 328 336 344 344 344 345 340 344 346 349 352 351 353 352 351 346 346 344 345 343 339 332 332 329 328 328 329 330 330 333
247 259 263 260 258 263 278 285 287 285 287 283 287 299 308 315 320 323 325 329 332 330 329 328 328 331 332 337 336 336 335 336 338 338 338 337 336 334 332 329 331 331 331 332 331